User: anonymous   Login
Location: Unspecified
(0.0000°N, 0.0000°E)
Time: 19:03:36
(UTC+00:00)
Language:

NOSS 2-1 (C) - Orbit

View from above orbital plane
View from above orbital plane
View from above satellite
View from above satellite

Ground track
Ground track

The orbit data is extracted from the following two-line orbital elements,

1 20691U 90050C   17102.80020645 0.00000270  00000-0  71134-4 0    00
2 20691  63.3430   2.6720 0785000  30.3674 329.6326 13.41682467    02
Epoch (UTC): 12 April 2017 19:12:17
Eccentricity: 0.0785000
inclination: 63.3430°
perigee height: 516 km
apogee height: 1690 km
right ascension of ascending node: 2.6720°
argument of perigee: 30.3674°
revolutions per day: 13.41682467
mean anomaly at epoch: 329.6326°
orbit number at epoch: 0

The dashed part of the orbit path shows where the satellite is in the earth's shadow,  

DLR